Погода в Чернигове

Погода в Чернигове : погода сейчас, прогноз погоды и архив. Всё, что Вы хотите узнать о погоде в Чернигове!

Хотите узнать прогноз погоды в Чернигове? Тогда Вам сюда: Погода в Чернигове

Поиск расширенной информации на нашем сайте:

Другие новости

Новости СМИ2

Главная страница сайта

Новости сайта

03.07.2017

Напоминаем, что на нашем специализированном сайте Метеоцентр.Азия вы можете получить высокодетализированные автоматические прогнозы погоды по пунктам России, СНГ и мира в авиационном формате (включающие направление и скорость ветра, видимость, явления погоды, количество и форму облачности, нижнюю и верхнюю границу облачности).


Погода в Чернигове - сегодня

Время (UTC), дата Ветер
(°,м/с) 
Видим.   Явления Облачность Т
(°С)
Тd
(°С)
f(%) Тe
(°С)
Pmin
(гПа)
dP
(гПа)
Po
(мм)
O2
(г/м3)
Тmin Tmax R s Состояние
почвы
15 17.11.17 180 (Ю) н/о    8/6 800 м средняя 
[Sc|Ac trans]
+2.7 -0.3 81 +3  1024.3  -0.8  757  302           
18 17.11.17 210 (ЮЗ) н/о    10/10 600 м 
[Sc]
+2.1 +0.2 87 +1  1023.2  -1.1  756  302    +6.2       
21 17.11.17 190 (Ю) н/о    10/10 480 м 
[Sc]
+2.7 +0.8 87 +3  1022.9  -0.3  756  301           
00 18.11.17 тихо ()   н/о  слаб. дождь  10/10 330 м 
[Frnb|Ns]
+2.7 +1.1 89 +3  1022.1  -0.7  755  301           
03 18.11.17 180 (Ю) н/о  слаб. морось{дождь}  10/10 330 м 
[St]
+2.5 +1.5 93 +3  1021.1  -1  755  301           
06 18.11.17 тихо ()   4000 м  слаб. дождь{морось}  10/10 300 м 
[Frnb|Ns]
+2.7 +1.7 93 +3  1020.6  -0.5  754  301  +2    0.7     
09 18.11.17 180 (Ю) 4000 м  слаб. дождь  10/10 270 м 
[Frnb|Ns]
+2.8 +2.3 97 +2  1020.3  -0.3  754  300           
12 18.11.17 170 (Ю) 4000 м  слаб. дождь  10/10 240 м 
[Frnb|Ns]
+3.3 +2.5 94 +3  1018.5  -1.7  753  299           
15 18.11.17 160 (Ю) н/о  слаб. дождь  10/10 270 м 
[Frnb|Ns]
+3.1 +2.3 94 +3  1017  -1.5  752  299           
18 18.11.17 210 (ЮЗ) н/о  слаб. дождь  10/10 300 м 
[Frnb|Ns]
+3.1 +2.3 94 +4  1015.4  -1.6  750  299    +3.7     
21 18.11.17 160 (Ю) н/о  слаб. дождь  10/10 400 м 
[Frnb|Ns]
+3 +2.8 99 +4  1014.1  -1.3  749  298           
00 19.11.17 160 (Ю) н/о  слаб. дождь  10/10 300 м 
[Frnb|Ns]
+3.3 +3.1 99 +3  1012.1  -2  748  297           
03 19.11.17 160 (Ю) н/о  слаб. дождь  10/10 240 м 
[Frnb|Ns]
+3.1 +2.3 94 +3  1010  -2  746  297           
06 19.11.17 210 (ЮЗ) 2000 м  слаб. морось{дождь}  10/10 200 м 
[St]
+2.9 +2.4 97 +4  1009.5  -0.5  746  297  +2.7       
12 19.11.17 270 (З) 4000 м  дымка{дождь, морось}  10/10 400 м 
[St]
+3.3 +2 91 +2  1009  0.1  746  297           
15 19.11.17 210 (ЮЗ) н/о  дымка  10/10 400 м 
[St]
+2.8 +1.8 93 +2  1009.4  0.4  746  297           
18 19.11.17 210 (ЮЗ) н/о  дымка  ясно 
+0.5 -0.1 96 1010.1  0.5  746  300    +4.1  0.3     
21 19.11.17 270 (З) н/о  дымка  10/10 240 м 
[St]
+0.6 +0 96 1011.3  1.2  747  300           
00 20.11.17 тихо ()   н/о  дымка  10/10 210 м 
[St]
-1 -1.3 98 -1  1011.5  0.1  747  302           
03 20.11.17 тихо ()   н/о  дымка  10/10 180 м 
[St]
-1.3 -1.5 99 -1  1011.6  0.1  747  303           
06 20.11.17 тихо ()   0200 м  переохл. туман  ?/?  
-2.5 -2.5 100 -3  1012.2  0.5  748  304  -2.7         
09 20.11.17 тихо ()   0200 м  переохл. туман  ?/?  
-1.6 -1.6 100 -2  1012.3  0.2  748  303           
12 20.11.17 тихо ()   4000 м  в посл. час туман  8/8 330 м 
[Frnb]
+0.1 -0.2 98 1011.3  -0.9  747  301           
15 20.11.17 180 (Ю) н/о  в посл. час туман  10/10 150 м 
[St]
-0.5 -0.8 98 -1  1010.9  -0.5  747  302           
18 20.11.17 160 (Ю) н/о  дымка{туман}  10/10 150 м 
[St]
-1.1 -1.4 98 -2  1010.7  -0.2  747  302    +0.6       
Время (UTC), дата Ветер
(°,м/с) 
Видим.   Явления Облачность Т
(°С)
Тd
(°С)
f(%) Тe
(°С)
Pmin
(гПа)
dP
(гПа)
Po
(мм)
O2
(г/м3)
Тmin Tmax R s Состояние
почвы

Для получения пояснительной информации подведите курсор к названию столбца.

ПОГОДА в Чернигове - архив

Всё, что Вы хотите узнать о погоде в Чернигове - удобно и подробно!

Выберите нужную дату (начиная с 1 января 2015* года) и нажмите кнопку "Найти".
Будут отображены архивные сводки погоды по пункту Чернигов, начиная с указанной даты.


Отображать данные в формате CSV (для использования в таблицах Excel)


Внимание! Наш архив погоды предназначен исключительно для личного некоммерческого использования в познавательных целях. Если Вам необходимы официальные справки о состоянии погоды (для производственных, юридических, коммерческих и т.п. целей), обращайтесь в органы Росгидромета.

*Примечание: данная дата относится к архиву по метеостанциям СССР (Россия, СНГ, Балтия).
Архив по метеостанциям Зарубежной Европы и Азии (кроме Китая) хранится 10 дней, по другим регионам земного шара (Китай, Африка, Америка, Австралия, Океания) - 1 день.

Чернигов - район местоположения метеостанции


Название, широта, долгота, высота метеостанции:
Чернигов 51.5°ш. 31.2°д. 141 м над ур. моря [Украина]

Дополнительная информация

В oтличие oт бoльшинства пoгoдных сайтoв мы публикуем пoдрoбную метеoинфoрмацию в детальнoм прoфессиoнальнoм фoрмате.

Характеристики температуры и влажнoсти вoздуха измеряются на высoте 2 м в тени вдали oт зданий и деревьев.
Скoрoсть ветра измеряется на высoте 10 м (на урoвне рoста челoвека скoрoсть ветра ниже в 1.5-2 раза). Если метеoстанция нахoдится в гoрoде или в лесу, тo скoрoсть ветра занижена на 2-4 м/с пo сравнению с oткрытым местoм. Скoрoсть ветра над акватoриями крупных рек и oзёр, а также на вершинах хoлмoв на 2-5 м/с выше, чем в oбычных услoвиях.
Атмoсфернoе давление в разных тoчках местнoсти мoжет значительнo oтличаться oт давления на метеoстанции, в зависимoсти oт услoвий рельефа (при пoдъёме на 10 м давление пoнижается примернo на 1 мм рт.ст.).